Theta_e
335 328 333 336 338 342 342 343 343 341 338 336 331 326 330 331 327 324 327 332 338 342 343 344 344 344 343 343 343 343 342 342 342 342 342 342 339 334 329 325 325 325 330 335 335 337 338 338 338 337 337 336 334 330 329 335 337 335 334 334 334 336 336 336 336 336 335 334 335 335 336 335 335 334 331 330 330 331 332 332 331 332 333 333 333
336 330 333 337 339 342 342 343 343 342 339 335 328 327 331 331 326 324 330 337 342 343 344 344 344 344 343 343 343 343 342 341 341 341 341 341 337 330 328 328 327 325 329 333 333 335 337 338 338 337 337 336 333 326 322 329 333 333 332 333 333 333 332 333 333 334 334 334 335 335 335 334 333 332 330 331 331 330 330 331 331 332 333 333 333
335 336 336 337 339 341 342 342 343 342 339 332 327 329 331 330 324 326 335 340 342 343 344 344 343 343 343 343 343 342 341 341 341 341 341 339 334 329 329 329 330 330 331 332 331 333 333 333 334 336 336 335 331 323 322 327 331 333 333 334 334 333 332 331 330 330 330 331 333 333 334 332 332 332 331 332 331 330 330 330 331 330 331 331 332
336 338 338 340 340 341 342 342 343 342 338 331 327 329 331 329 324 329 338 340 342 343 343 343 343 343 343 343 343 342 340 341 341 341 341 337 333 331 332 332 334 335 335 334 333 332 330 327 327 331 332 331 325 321 326 329 332 335 334 334 334 334 335 334 333 331 328 326 328 328 329 332 333 334 333 333 332 331 332 332 332 330 330 329 330
337 339 340 341 341 342 342 342 343 341 337 330 328 330 331 328 326 333 339 339 341 342 343 343 343 343 343 343 343 343 341 342 341 341 340 338 336 334 334 335 336 337 336 334 333 331 328 325 322 325 325 321 318 320 329 331 333 335 335 336 335 336 336 337 336 336 333 327 326 326 327 331 332 334 335 334 333 332 332 332 331 331 331 331 330
335 338 341 341 342 343 342 342 343 341 336 331 330 332 331 328 330 337 339 339 340 341 342 343 343 343 343 343 343 343 343 342 341 341 340 339 339 337 336 336 336 337 337 335 334 333 330 325 321 321 319 316 317 321 329 332 332 334 335 337 336 337 337 337 336 337 337 332 330 329 328 330 331 333 334 334 334 333 332 332 330 331 332 331 331
331 336 341 341 342 342 342 342 342 341 336 333 332 333 331 330 336 340 339 339 340 340 341 342 342 343 343 343 343 343 342 342 341 341 340 340 340 339 339 338 336 335 336 335 336 335 332 327 323 321 317 315 318 323 329 332 332 333 334 335 335 336 336 336 336 336 337 334 332 330 328 330 332 333 334 333 333 333 332 330 330 331 330 329 329
334 339 341 341 342 341 342 341 341 340 337 335 334 335 332 334 340 340 340 339 339 340 341 342 342 342 343 343 343 341 341 340 341 341 340 341 340 340 340 338 336 334 334 336 336 335 334 331 329 326 318 316 321 325 329 331 333 333 333 333 334 334 334 334 334 335 336 335 333 330 328 329 331 334 334 332 332 332 330 329 330 330 328 327 328
339 341 340 341 340 340 342 341 341 339 338 337 336 337 334 336 340 341 341 339 339 341 342 343 343 343 342 342 342 340 341 341 341 340 341 341 341 340 339 338 335 332 332 334 333 331 331 330 329 326 320 319 324 327 330 332 332 332 333 333 333 333 334 335 335 335 335 334 333 331 328 327 331 334 335 333 332 332 330 330 330 330 328 328 329
340 340 341 341 339 341 341 341 341 339 339 338 338 338 335 337 340 341 340 338 340 342 343 343 343 342 341 341 341 340 341 340 341 340 341 341 340 340 339 337 333 330 331 333 332 328 327 325 323 321 319 322 326 329 331 332 332 332 333 332 333 333 335 336 336 335 335 334 333 331 327 326 330 333 334 334 333 333 331 331 331 330 328 328 329
339 340 340 340 340 340 341 341 340 339 339 339 339 337 334 337 340 341 339 338 341 343 343 342 343 342 342 341 340 340 340 340 340 340 341 340 340 339 338 336 333 331 333 333 330 327 326 323 318 317 320 325 328 330 331 332 332 332 332 333 333 334 336 337 335 334 335 334 334 331 325 325 326 328 330 331 331 331 330 330 329 329 329 329 329
339 340 340 339 339 340 341 340 339 339 339 339 339 336 333 336 341 340 338 340 342 343 342 342 343 342 342 341 340 340 340 340 340 340 341 339 339 339 338 336 333 332 332 330 329 328 327 322 316 317 322 326 329 331 331 332 332 332 332 333 334 335 336 336 335 334 334 334 334 330 324 324 325 326 327 327 327 328 330 330 328 327 330 330 329
338 338 339 339 338 339 340 339 339 339 339 339 338 336 333 337 341 340 339 341 343 342 342 342 342 341 341 341 340 340 340 339 339 340 340 339 338 337 336 335 332 329 328 328 329 329 327 323 316 318 324 327 329 330 331 331 332 332 333 333 333 334 335 335 335 335 335 335 334 330 325 325 326 325 325 325 326 328 330 330 328 328 329 329 328
337 338 338 338 337 339 340 339 339 338 339 338 336 335 335 338 341 340 340 341 342 342 341 341 341 341 340 340 340 338 337 335 334 335 336 336 336 335 335 335 331 328 326 328 330 329 328 324 317 318 324 327 329 330 331 331 332 333 333 333 333 333 334 334 335 335 336 335 334 331 325 326 327 324 325 325 327 329 329 329 328 327 326 326 326
336 337 337 337 337 338 339 339 338 338 337 336 334 335 337 339 340 340 340 341 342 340 341 341 340 340 339 339 337 334 331 328 327 327 328 330 330 330 332 333 329 327 326 327 330 329 328 326 319 319 323 327 328 330 330 331 332 332 333 333 333 334 334 333 334 334 335 336 335 332 327 327 326 325 325 325 326 328 328 328 327 326 325 326 325
336 337 337 337 337 337 338 338 338 337 336 335 335 336 338 338 339 339 339 341 341 340 340 340 340 340 339 337 333 330 328 326 324 322 322 321 322 322 324 327 325 325 326 327 330 329 328 327 322 318 322 326 328 329 330 331 332 332 333 333 333 335 335 334 333 333 335 335 335 333 329 327 326 325 326 325 325 327 328 328 327 327 327 326 324
337 337 337 336 336 337 337 337 336 336 335 334 336 337 338 338 339 337 338 340 340 340 340 340 340 339 338 335 331 330 329 327 324 321 320 318 317 316 317 322 322 322 324 326 329 330 329 328 324 320 321 324 327 329 330 332 332 332 332 333 334 335 335 335 333 333 334 335 335 334 330 327 326 326 326 324 325 326 328 328 328 328 327 325 322
337 336 335 334 335 337 336 336 336 336 334 335 337 338 338 338 337 337 339 340 340 340 340 340 339 338 336 333 331 331 331 328 324 320 319 316 314 313 314 318 319 319 323 326 329 330 329 328 327 323 320 321 325 328 330 331 331 332 333 333 333 333 334 335 333 333 333 334 335 334 331 327 324 325 326 324 324 326 327 326 326 326 326 323 321
338 337 335 333 334 336 335 335 335 334 334 336 337 337 338 338 337 338 340 340 340 340 340 339 338 337 333 331 332 333 332 328 322 320 319 316 313 312 312 316 317 317 321 326 328 330 329 329 328 326 323 321 322 325 329 331 331 332 332 333 331 328 332 335 334 333 332 332 333 334 332 327 324 325 326 324 324 326 326 324 324 325 325 323 321
338 338 338 335 335 335 334 334 333 334 335 337 338 338 339 339 339 340 340 340 340 340 339 339 337 334 332 333 334 333 332 327 322 320 319 316 314 313 312 313 315 316 321 326 328 329 329 330 329 328 327 324 323 322 325 328 329 331 332 332 328 323 328 334 335 334 332 331 332 334 333 328 325 326 325 324 325 326 326 324 324 325 326 324 321
339 338 338 337 336 335 333 333 334 337 339 339 340 341 341 341 341 340 341 340 340 340 339 338 336 333 334 334 334 334 333 329 324 321 320 318 315 313 312 313 313 314 320 325 327 329 329 329 329 328 328 327 326 322 322 325 327 330 331 329 325 325 328 332 334 334 334 333 331 333 333 329 327 328 326 325 325 326 327 325 325 325 326 325 322
339 338 337 338 338 336 332 333 338 341 341 342 341 342 342 341 341 341 341 341 341 341 339 337 335 335 335 335 335 336 335 332 326 323 323 323 320 315 312 312 312 313 320 325 326 327 327 327 327 327 326 326 327 324 321 322 324 327 329 327 329 333 332 331 333 334 335 335 332 332 332 330 329 328 326 325 327 327 328 327 327 327 327 325 323
338 337 337 338 339 337 332 332 340 343 342 342 341 342 342 341 341 341 341 340 341 340 338 337 336 336 335 336 337 338 337 334 331 329 326 326 327 322 316 314 312 313 318 323 324 325 326 325 324 324 323 324 328 329 325 323 326 330 332 331 333 336 335 334 334 334 335 336 335 333 332 330 330 329 326 326 328 328 329 328 328 328 327 327 325
338 338 337 338 338 336 331 332 340 342 342 342 342 343 342 341 341 341 341 340 340 338 338 336 335 336 337 338 339 338 337 335 336 336 331 329 331 331 327 324 321 319 320 322 322 322 322 322 323 324 325 324 327 329 328 329 331 333 332 331 331 333 335 336 336 336 335 336 337 335 333 332 331 329 327 328 328 329 329 329 329 329 328 328 328
338 338 337 338 337 334 330 332 340 342 342 342 342 343 341 341 341 341 341 340 340 338 337 335 336 338 339 339 338 338 338 337 337 338 336 334 335 336 335 334 332 331 331 330 330 328 327 327 328 329 330 329 329 330 330 332 333 333 332 332 331 331 333 334 335 337 336 337 337 336 334 333 332 330 329 329 330 329 330 330 330 330 330 329 329
338 338 338 337 335 333 330 332 340 342 342 342 342 342 341 341 341 341 341 340 339 338 336 335 337 339 340 339 339 338 337 337 337 338 338 338 337 337 337 337 336 335 335 336 336 335 333 333 334 334 333 333 333 334 334 335 335 334 334 333 332 331 331 331 333 335 336 336 336 335 333 333 332 331 329 329 330 330 330 331 331 331 330 330 330
337 337 338 337 334 333 332 332 338 341 341 341 341 341 340 340 341 341 340 340 339 337 336 336 338 340 340 339 339 339 338 337 337 337 338 339 337 337 337 338 337 336 336 336 336 335 335 335 336 336 336 336 336 336 336 336 336 336 335 334 333 333 332 331 331 332 333 335 335 334 333 333 332 331 330 330 330 330 330 330 331 331 331 331 331
337 337 337 335 333 334 333 331 334 339 341 340 339 339 340 340 340 340 339 339 337 336 336 338 339 340 339 339 339 339 339 338 338 337 338 338 338 337 337 338 337 337 337 337 336 336 337 337 337 337 337 337 337 337 337 337 336 336 336 335 335 334 334 333 332 331 332 333 334 333 333 333 332 332 331 331 331 330 331 332 332 332 332 331 331
338 336 333 331 330 331 332 330 331 337 340 338 339 339 339 339 339 338 338 338 336 336 338 339 340 340 340 340 340 339 338 338 339 338 338 338 337 337 338 339 338 337 338 338 337 338 338 338 338 338 337 337 337 337 336 337 336 336 336 336 336 336 335 334 334 333 333 333 333 332 332 332 333 332 331 332 333 331 331 334 335 335 335 334 334
338 335 333 330 330 331 330 327 329 335 338 338 339 339 338 338 338 337 336 337 338 339 340 340 340 340 340 340 340 339 338 338 339 339 338 338 338 338 339 339 339 338 338 338 338 339 339 339 339 338 337 337 337 337 337 337 337 336 336 336 336 336 336 335 335 335 334 334 334 333 333 333 333 333 332 333 333 332 331 332 333 334 335 335 335
338 337 336 333 334 334 331 328 329 333 337 338 337 336 336 337 336 336 336 337 339 341 341 341 340 340 339 339 338 338 338 338 339 339 339 339 339 339 338 338 338 338 338 339 339 340 340 339 338 338 337 337 337 337 337 337 337 336 336 336 336 336 335 335 335 335 335 335 334 334 334 334 334 334 334 333 334 333 332 332 332 333 334 334 335
338 338 338 337 338 337 334 331 330 333 336 335 334 335 335 335 335 336 337 338 340 341 340 341 340 340 339 338 338 338 338 338 339 339 339 339 339 338 338 337 338 338 339 340 340 340 340 339 338 338 338 337 337 337 337 337 337 336 336 336 336 336 336 335 335 335 335 335 335 335 334 334 334 334 334 334 334 334 333 333 332 333 333 334 334
338 339 339 339 339 337 335 332 331 333 334 332 334 335 335 336 337 337 338 339 340 340 340 340 340 339 338 337 337 338 338 339 339 339 339 339 338 337 337 337 338 339 340 340 340 340 339 338 338 338 337 337 337 337 337 337 337 336 336 336 336 336 336 335 335 335 335 335 335 335 335 335 335 335 335 335 335 335 334 334 333 333 333 333 334
338 339 340 340 339 337 336 334 332 332 333 334 336 337 338 338 339 339 340 339 340 339 339 339 338 337 337 337 338 337 338 339 339 339 338 338 338 337 337 338 339 339 340 340 340 339 339 338 338 337 337 337 337 336 336 337 336 336 336 336 336 335 335 335 335 334 335 335 335 335 334 335 335 336 336 335 335 335 335 335 334 334 333 333 333
338 339 340 339 338 337 336 335 335 334 335 336 337 338 338 339 339 340 339 339 339 339 339 338 337 337 337 338 338 338 338 338 339 338 337 338 338 338 338 339 339 339 340 341 340 339 338 338 338 337 336 336 336 336 335 335 336 336 336 335 335 334 334 334 334 334 334 334 334 335 335 335 335 336 336 336 336 336 336 336 335 335 334 334 333
338 339 339 338 338 338 336 335 336 335 336 337 337 338 338 338 339 339 338 338 339 338 338 338 338 337 338 339 339 339 339 338 338 337 337 339 338 338 338 339 340 340 340 340 340 339 338 338 337 336 335 335 335 334 334 334 334 335 335 334 333 333 333 333 333 333 334 335 335 335 335 335 335 336 337 337 337 337 337 336 336 335 335 334 334
338 339 339 338 338 338 337 336 336 336 336 337 337 337 337 338 339 338 337 338 338 338 338 338 338 338 339 339 339 339 339 339 338 338 338 338 338 338 338 339 340 339 339 338 338 337 337 337 336 335 334 335 334 334 334 334 334 334 334 333 332 332 332 332 333 333 334 334 334 333 333 334 335 336 336 336 336 336 336 336 336 336 335 335 334
339 338 338 338 338 338 337 337 336 336 337 337 337 337 337 338 338 337 337 337 337 338 338 338 339 339 339 339 339 339 339 339 338 338 338 338 338 338 338 338 338 338 337 337 336 336 336 335 334 334 334 334 333 333 333 334 334 333 333 332 331 331 332 332 332 332 333 332 332 332 333 333 333 333 334 334 334 334 333 332 331 331 331 330 331
338 337 337 337 337 337 337 337 336 337 337 337 337 337 337 337 337 337 338 338 338 338 339 339 338 338 339 339 338 338 337 337 337 337 337 337 337 337 337 337 337 337 336 335 335 334 334 334 333 333 333 332 332 332 333 333 333 332 332 331 331 332 332 331 331 331 330 330 331 331 330 330 329 330 330 330 330 329 327 325 324 324 325 326 327
336 336 336 336 337 337 337 337 336 338 338 338 338 338 338 338 338 338 338 338 338 339 338 338 338 337 337 337 337 336 336 336 336 336 336 337 337 337 337 336 336 336 335 334 334 333 333 333 332 332 332 331 331 331 331 332 332 331 330 330 331 333 332 330 330 330 330 329 329 329 328 327 327 326 326 325 324 323 322 322 322 322 324 325 327
336 336 336 336 337 336 337 336 337 338 337 338 338 337 338 338 338 338 338 338 338 338 337 337 337 336 336 336 336 336 336 336 337 336 336 337 337 336 336 335 335 334 333 332 332 332 332 331 331 330 330 330 329 329 330 330 330 330 330 329 329 332 333 331 328 327 328 329 327 327 325 324 323 323 323 322 321 319 319 321 321 321 322 324 325
336 337 336 336 337 336 337 336 337 337 337 337 337 337 338 337 338 337 337 337 337 337 337 336 336 336 335 336 336 336 336 336 336 336 335 335 335 335 334 333 333 332 331 331 331 330 329 329 329 329 328 328 327 326 328 329 329 328 329 330 330 331 332 330 327 325 326 327 326 324 323 321 320 320 320 319 317 317 318 320 321 319 319 320 321
336 336 336 336 336 336 337 336 336 337 337 337 337 337 338 337 338 338 337 337 336 336 336 335 335 335 335 334 335 334 335 334 334 334 334 334 333 333 332 331 331 330 330 330 329 327 326 326 327 327 327 326 325 324 325 326 326 327 328 331 332 332 332 329 324 324 325 326 325 323 321 318 317 317 317 316 314 314 316 317 319 319 317 316 316
336 336 336 336 336 336 336 337 336 336 337 337 337 338 337 338 338 337 337 336 335 335 334 334 334 334 333 333 333 333 333 333 333 333 333 332 332 331 330 330 329 328 328 327 325 324 324 323 324 324 325 325 324 323 322 323 324 325 327 329 328 329 331 326 322 323 324 324 323 321 319 316 314 314 314 313 311 312 314 314 316 318 316 314 313
335 336 335 336 336 336 336 337 337 337 337 337 337 338 337 337 337 336 336 335 333 332 332 332 331 332 331 330 330 331 332 331 331 330 330 330 329 328 328 327 326 325 325 324 323 322 321 321 321 322 322 323 322 321 321 320 320 322 323 325 326 326 327 323 322 325 323 322 321 319 318 314 313 313 312 310 309 310 312 311 313 315 313 311 310
335 335 335 336 336 336 336 336 337 337 337 337 338 338 338 337 336 336 335 333 331 330 330 329 329 329 329 328 328 329 329 329 328 327 327 327 327 326 325 324 323 322 322 321 321 320 320 319 319 320 320 320 320 319 318 318 318 319 319 320 321 321 320 319 321 324 321 320 321 319 315 312 311 312 310 308 306 308 310 309 309 310 309 307 306
335 335 335 336 336 336 335 335 336 337 337 337 336 336 337 337 336 335 334 332 331 328 327 328 328 327 326 326 326 326 326 326 325 324 324 324 324 323 323 322 321 321 320 319 319 318 318 317 317 317 317 317 317 316 315 316 316 316 317 317 315 314 314 314 316 318 318 319 318 315 313 310 309 310 309 306 304 307 308 306 307 306 304 303 301
336 336 336 336 336 336 336 336 335 335 335 335 334 334 336 336 335 335 333 332 330 327 326 327 327 326 325 325 324 323 323 323 323 322 322 322 321 321 320 320 319 319 318 318 317 317 316 316 315 315 314 314 314 314 313 313 313 312 313 314 312 311 311 310 310 313 315 315 314 311 309 308 307 306 306 303 302 304 305 304 304 302 301 301 299
336 336 336 336 337 336 336 336 333 332 333 334 333 333 335 336 335 335 333 331 329 327 326 326 325 325 324 323 322 321 320 320 320 320 319 319 319 319 319 318 318 317 316 316 315 316 315 314 313 313 312 312 312 312 311 310 310 310 310 310 309 309 308 308 307 308 310 311 311 309 306 305 304 303 303 301 300 302 304 303 301 300 301 300 299
336 336 336 336 336 336 336 335 333 331 333 334 333 333 333 334 334 334 332 330 328 326 325 324 324 324 323 321 320 319 318 318 317 317 317 317 317 317 317 316 316 315 314 314 314 314 313 312 312 311 311 310 310 310 309 309 308 307 307 307 306 306 306 306 305 305 306 307 306 305 304 303 302 302 302 300 299 301 303 301 299 300 300 299 298
335 335 336 335 335 335 335 335 333 331 332 332 333 332 331 332 334 334 332 329 327 325 324 323 322 322 321 319 318 317 317 316 316 315 315 315 315 315 315 314 314 313 313 313 313 312 311 311 310 309 310 310 309 308 307 307 306 306 305 304 303 303 303 303 302 303 303 303 303 302 302 301 301 301 301 299 299 300 302 300 299 300 300 298 297
Wind_Speed
27 28 26 26 24 23 21 21 20 21 23 21 21 20 19 19 19 21 21 20 20 20 19 18 18 18 17 17 17 17 18 18 18 17 16 15 13 12 13 13 13 13 13 14 14 13 12 11 11 11 11 12 12 11 11 11 11 12 13 13 14 13 12 12 11 11 12 12 12 12 11 10 9 10 10 11 11 12 11 11 12 13 12 11 10
31 28 28 26 25 24 22 21 21 21 22 22 21 20 19 19 20 21 21 20 20 20 19 18 17 17 17 17 17 17 17 18 17 17 16 14 13 12 12 13 13 13 13 13 13 12 11 11 10 10 11 12 11 11 11 12 12 13 14 15 15 14 13 12 11 11 11 11 12 11 10 9 9 9 10 11 11 11 10 11 11 12 11 10 10
32 30 28 26 25 24 23 22 21 21 21 22 22 20 19 19 20 21 21 20 20 20 19 18 18 17 17 17 17 17 17 17 17 16 15 14 13 12 12 12 12 12 13 13 12 11 10 10 10 10 10 11 10 11 13 14 14 15 16 16 16 15 15 15 13 12 10 10 10 9 9 9 9 10 10 10 10 10 10 10 11 10 9 9 9
31 30 27 26 24 24 23 22 21 21 21 22 22 20 19 19 20 20 20 20 20 19 19 18 18 17 17 17 17 17 17 17 16 15 14 13 12 12 12 12 13 12 12 12 11 10 10 9 9 9 8 9 10 12 14 15 15 15 16 16 15 14 14 14 14 13 11 9 8 8 9 10 10 10 10 9 9 11 11 10 11 10 10 8 8
30 28 27 25 24 24 22 22 21 21 22 22 21 20 18 19 20 20 20 20 20 19 18 18 17 17 17 17 16 16 16 16 16 15 14 12 12 11 12 13 12 11 10 10 10 9 9 9 9 9 8 9 10 13 15 15 14 15 15 14 12 10 9 10 12 12 10 9 9 8 9 10 10 9 9 8 8 10 10 9 9 10 9 8 8
29 27 26 25 24 24 22 22 21 21 21 21 21 19 18 18 19 20 20 19 19 19 18 17 17 16 16 16 16 15 15 15 15 14 13 12 11 11 12 12 11 10 9 9 9 9 9 9 9 9 9 10 12 14 15 15 14 13 12 11 10 9 7 7 8 9 7 7 8 9 9 9 9 9 8 7 7 8 7 7 7 8 7 6 6
29 28 26 25 25 23 22 22 20 21 21 21 20 19 18 18 19 19 19 19 18 18 17 17 16 16 16 15 15 15 14 14 14 13 12 11 11 11 11 11 9 8 8 8 8 8 8 8 9 9 10 12 13 14 14 14 13 12 10 9 8 7 6 4 4 5 3 4 6 7 8 8 8 7 7 7 7 6 5 5 6 7 5 4 5
29 28 26 26 25 23 22 21 21 21 19 20 19 18 18 17 18 18 18 18 18 17 17 17 16 16 16 15 14 15 14 14 13 12 12 11 10 10 10 9 8 7 7 7 7 6 6 7 8 9 10 13 14 14 13 13 12 10 9 8 7 5 3 1 0 3 2 2 4 6 7 7 7 7 5 5 5 3 2 4 5 4 4 5 5
28 27 26 26 24 24 22 21 21 20 19 20 19 17 17 17 17 17 18 17 17 16 16 16 16 16 16 15 15 15 14 13 12 11 11 10 10 9 9 7 6 6 7 7 6 5 6 6 7 8 11 14 14 13 13 12 10 9 8 7 6 4 2 1 1 3 3 3 4 5 6 5 6 7 4 2 3 2 3 4 4 3 4 5 6
28 26 26 25 24 23 22 22 22 20 20 19 18 17 17 17 17 17 17 17 16 16 16 16 15 15 16 15 14 14 13 12 11 10 10 9 9 8 7 6 6 6 7 6 5 6 6 7 8 10 13 15 14 13 12 11 9 8 7 6 5 4 0 1 2 3 3 4 4 5 5 4 4 5 4 2 2 2 3 4 4 3 4 5 5
27 27 26 25 23 23 23 22 21 21 20 19 18 17 17 17 17 18 17 17 16 16 16 15 15 15 15 15 14 13 12 11 10 10 9 8 7 7 7 6 6 7 6 6 6 6 6 7 9 12 14 15 14 13 12 10 9 7 7 6 6 4 0 1 3 4 4 4 4 4 4 3 3 3 3 2 1 1 1 2 2 3 4 4 5
27 28 26 24 23 23 23 22 21 20 19 19 18 18 18 18 18 18 18 17 16 16 16 15 15 15 15 14 13 13 11 10 9 8 7 7 6 6 6 5 5 7 6 6 6 6 6 7 10 13 15 14 13 12 11 9 8 7 7 7 7 5 1 1 3 4 4 3 3 4 4 3 3 3 2 2 1 2 2 2 3 5 5 4 4
28 28 26 24 24 23 22 21 21 20 20 19 19 18 18 19 18 18 18 17 16 16 16 15 15 15 14 13 13 12 10 9 8 7 6 6 5 5 5 4 5 6 6 6 6 6 7 7 9 13 14 14 13 11 10 9 7 7 6 6 7 6 2 0 1 2 3 2 2 3 3 3 4 4 2 2 2 3 3 3 3 5 5 3 3
31 29 27 26 25 23 21 21 21 20 20 19 19 18 18 19 18 18 18 17 16 16 15 15 14 14 13 12 11 10 8 7 6 6 5 6 5 5 5 4 5 6 6 6 6 6 7 7 9 12 13 13 12 10 9 8 7 7 6 6 7 7 4 1 1 2 2 2 1 1 2 3 3 3 3 3 3 3 3 2 2 2 3 2 2
32 29 28 27 25 23 21 20 20 21 20 19 19 19 19 19 18 18 17 16 16 15 15 15 14 13 12 11 10 9 7 6 5 4 4 5 5 5 5 6 7 7 6 6 6 6 7 8 9 11 12 12 11 9 8 8 7 6 5 5 7 7 6 4 2 3 3 2 1 1 2 3 3 3 3 3 3 3 2 2 2 2 2 2 1
31 30 29 28 26 24 22 21 20 20 20 20 20 18 19 19 18 17 17 16 15 15 15 14 13 12 11 10 9 8 6 5 4 2 2 3 3 5 5 7 8 7 7 6 6 6 7 7 8 10 11 11 10 9 8 7 6 5 4 5 7 8 8 7 4 2 4 4 3 3 3 3 2 2 2 3 3 3 2 3 3 2 2 1 1
30 30 30 28 27 25 23 22 21 20 20 20 20 19 19 19 18 17 16 15 15 14 14 13 12 11 10 9 8 7 6 4 3 2 2 1 2 3 5 7 8 8 8 7 6 6 7 7 8 8 10 10 9 9 8 7 6 4 3 4 7 8 9 10 8 4 3 5 5 5 4 4 3 2 2 3 4 3 3 4 3 2 2 2 1
29 29 29 28 27 25 24 23 22 22 21 20 20 19 19 18 18 17 16 15 15 14 13 13 11 11 9 8 8 6 5 4 4 3 3 2 2 2 5 7 8 9 9 8 7 6 7 7 8 7 7 8 8 8 7 7 5 3 3 4 6 8 9 10 10 7 3 5 6 6 5 5 4 3 3 4 4 3 3 4 4 4 3 2 1
27 27 28 28 28 26 25 24 24 24 22 21 21 19 18 18 17 16 15 15 14 14 13 12 11 10 9 8 7 5 5 5 5 5 5 5 3 3 5 7 8 9 9 8 7 6 6 7 7 7 6 5 6 7 7 6 4 2 2 3 5 7 8 8 9 9 5 4 5 6 7 6 5 4 4 5 5 4 4 5 5 4 3 2 2
24 23 25 26 27 27 26 26 26 25 23 23 21 20 18 17 17 16 15 15 14 14 13 11 10 9 8 7 6 5 6 6 6 6 7 7 6 5 5 7 8 9 10 8 7 6 6 6 6 6 6 5 3 3 6 6 4 3 1 1 5 8 7 7 8 9 7 4 5 6 8 8 6 5 5 5 6 6 6 6 6 5 4 4 3
21 21 22 24 25 25 26 26 26 25 23 22 21 20 18 17 17 16 15 14 14 13 12 11 10 9 8 7 6 7 7 7 7 7 8 9 9 7 6 7 8 9 9 8 6 5 5 5 5 5 5 5 4 2 2 5 5 3 2 2 6 8 8 7 7 8 9 7 6 7 9 9 8 7 6 6 7 7 7 6 6 5 5 5 3
21 21 22 23 23 23 24 25 25 23 22 21 21 20 19 18 18 17 16 15 14 13 12 11 9 8 7 7 7 7 7 7 7 7 8 10 10 10 8 7 7 8 9 8 6 4 4 3 3 3 4 4 4 3 1 2 3 2 2 4 6 7 8 8 8 9 10 9 7 8 9 11 10 9 8 8 8 8 8 7 7 6 6 6 4
23 23 22 22 22 22 23 25 25 22 21 20 20 19 19 19 18 18 17 16 14 13 12 10 9 8 8 7 7 7 6 6 7 7 7 9 10 11 10 8 7 8 8 7 5 4 3 2 2 2 3 3 3 2 1 1 2 2 5 7 8 8 9 9 10 10 11 11 10 9 11 12 12 10 9 9 10 10 9 8 7 6 6 7 6
24 23 22 22 22 23 24 26 25 22 21 20 20 19 19 19 18 18 17 17 14 13 12 10 10 9 8 8 7 6 6 5 6 6 6 7 9 9 10 9 8 7 6 5 3 2 1 1 1 3 3 3 3 3 2 2 3 5 8 9 10 10 10 11 11 12 13 13 13 12 12 13 13 12 11 11 11 11 10 9 8 7 7 7 7
23 23 23 23 23 23 25 28 26 23 22 20 19 19 19 18 18 18 17 16 14 13 11 11 11 9 8 8 7 6 5 5 5 4 4 5 6 7 7 6 6 6 5 4 3 2 2 2 2 3 3 3 4 4 4 5 6 7 9 10 11 10 10 12 12 13 14 15 15 14 13 12 14 14 13 13 13 13 12 11 9 9 9 9 8
22 23 25 24 23 23 26 29 27 25 23 21 20 19 18 18 18 18 17 16 14 13 11 11 11 9 8 7 6 5 4 4 3 2 3 2 3 5 5 4 4 3 3 3 2 2 2 2 2 2 3 4 4 5 6 7 8 9 10 11 11 11 10 10 11 13 14 15 15 13 13 12 13 15 14 14 14 14 14 13 12 11 11 11 10
22 22 24 24 24 24 26 30 29 27 24 21 21 20 19 19 18 18 17 15 14 13 12 12 11 9 8 7 5 3 2 2 1 1 0 0 1 3 4 3 3 3 3 3 2 2 1 2 2 3 3 4 5 6 6 7 9 10 10 10 10 10 11 10 8 9 11 13 12 10 10 11 12 14 14 16 16 16 16 16 14 13 12 13 13
24 23 25 26 27 27 27 29 30 29 26 23 22 22 20 18 17 17 16 15 14 14 13 12 10 9 8 7 5 4 3 3 4 3 2 2 2 2 3 2 2 2 2 2 2 2 2 1 2 3 4 4 5 6 6 7 8 9 9 8 8 9 10 10 7 6 8 9 8 7 8 8 10 12 15 18 18 18 18 17 16 15 14 15 15
28 29 30 30 30 30 29 30 32 31 28 25 23 22 20 18 17 17 16 15 14 14 13 12 10 8 8 7 6 6 6 6 6 4 3 3 3 2 1 0 1 1 1 1 2 2 2 2 3 4 4 5 5 6 6 7 8 8 8 7 7 8 9 10 8 7 7 8 8 9 9 9 11 13 17 18 18 19 18 17 16 15 15 15 16
32 33 33 33 32 32 31 31 33 33 30 26 23 22 20 19 18 17 17 16 15 13 12 11 10 8 7 7 7 6 6 6 6 5 5 4 3 2 1 1 1 2 1 1 1 2 3 4 5 5 5 5 5 6 6 7 7 7 7 7 8 9 9 9 9 8 8 9 10 11 11 12 13 14 16 16 17 19 18 18 18 17 17 17 17
31 33 35 33 32 32 31 31 32 33 31 27 23 22 21 20 19 18 17 16 15 13 12 11 10 9 8 8 7 6 6 6 7 6 5 4 4 4 3 2 2 2 1 1 1 3 4 5 5 5 6 6 5 6 6 6 6 6 6 7 8 9 9 10 10 9 9 10 11 12 13 13 14 14 15 16 17 18 18 19 19 19 19 21 18
29 34 34 31 29 31 31 30 30 31 30 27 25 24 22 20 19 18 17 16 14 13 12 11 11 10 10 9 8 7 7 7 7 6 5 5 5 5 4 3 3 2 1 0 2 3 3 3 3 3 4 4 4 4 5 6 6 6 6 7 8 9 9 10 10 9 9 10 10 11 12 12 13 14 15 16 16 17 18 19 20 20 19 21 21
30 33 32 29 28 30 31 30 30 30 29 28 26 25 22 21 19 17 16 15 14 13 12 12 12 12 12 11 9 9 8 7 7 6 6 6 5 5 4 4 4 3 1 1 2 3 2 2 1 2 3 4 4 3 4 4 5 6 7 8 9 9 10 10 10 10 9 10 10 10 11 12 13 14 14 15 16 17 18 19 20 21 20 20 22
29 31 31 30 29 30 29 29 30 30 30 29 27 25 22 21 18 17 16 15 14 13 12 13 13 13 12 11 10 9 9 8 7 6 6 6 5 4 4 4 3 2 1 1 2 2 2 2 2 3 5 5 5 5 5 5 6 7 8 9 10 11 11 11 11 10 10 10 10 10 11 12 14 14 15 15 16 16 17 18 19 21 21 21 21
27 31 32 31 29 27 26 27 29 30 30 29 27 25 22 20 19 17 16 16 16 15 14 15 15 14 12 11 10 9 8 8 7 6 6 5 4 3 3 3 1 0 1 2 2 2 2 3 4 5 7 7 7 7 7 7 8 8 9 9 10 11 11 11 11 10 10 10 10 11 12 13 14 15 16 16 17 17 18 19 19 20 21 21 21
25 28 28 27 24 22 22 24 26 27 29 29 26 24 22 20 19 17 16 17 17 17 16 16 15 13 11 10 9 8 7 6 6 5 5 5 3 3 3 1 1 1 2 2 2 2 2 4 5 7 8 8 8 8 8 9 9 10 10 10 10 11 11 11 11 10 9 9 9 10 11 13 14 15 16 17 18 19 20 20 20 20 20 20 21
22 22 23 22 20 19 20 20 22 24 26 27 25 24 22 21 20 18 16 18 18 17 17 16 14 12 11 9 8 7 6 5 5 4 4 4 3 3 3 2 1 1 1 1 2 2 3 4 5 7 7 7 8 9 9 10 10 11 11 11 11 11 10 10 9 9 8 8 10 11 11 12 13 14 15 16 17 19 19 20 20 20 20 21 20
20 20 20 19 19 18 18 18 20 22 24 25 24 24 23 23 21 20 19 18 18 17 16 14 12 11 9 8 7 6 5 5 5 4 4 5 5 5 5 5 3 2 1 1 2 2 3 4 5 5 5 6 8 9 10 10 11 12 12 12 11 10 9 9 9 9 9 10 11 12 12 13 14 15 15 15 16 17 19 20 20 20 20 20 20
19 18 17 18 18 18 18 18 19 21 23 24 25 25 25 24 23 21 19 18 16 15 14 12 10 9 8 6 6 5 5 5 5 6 7 8 8 8 8 7 5 3 1 1 1 3 4 4 4 3 3 6 8 10 10 10 11 11 11 10 9 7 6 9 10 11 13 13 13 14 14 15 15 16 17 17 18 19 20 21 21 21 20 20 20
19 18 17 17 17 18 18 18 19 22 24 25 25 25 25 24 22 20 18 16 15 14 12 10 9 8 7 7 7 7 7 8 8 9 9 9 9 9 8 7 5 3 2 2 3 5 5 4 3 3 4 6 8 11 11 11 11 11 10 8 6 4 4 8 11 13 14 14 14 14 15 15 16 18 19 19 20 21 22 22 22 22 22 21 21
18 18 19 18 18 19 19 21 22 23 25 25 24 25 24 22 21 20 18 16 15 14 12 10 9 9 9 10 10 9 9 10 11 11 11 10 10 9 8 8 6 4 4 4 5 5 5 4 3 5 7 9 12 14 13 12 11 11 12 9 7 2 1 4 9 14 15 13 13 14 15 17 17 19 20 20 21 22 23 22 23 24 23 23 22
19 20 21 21 21 21 22 24 24 23 24 24 24 23 23 22 21 19 18 16 14 13 12 12 13 14 13 13 12 12 12 12 12 12 12 11 11 10 10 9 7 6 5 5 4 4 3 3 4 6 9 11 14 15 15 12 9 9 8 8 8 3 2 3 4 12 15 12 12 14 16 19 20 20 20 21 22 22 23 22 22 24 24 24 23
21 22 22 23 23 23 25 26 25 24 23 23 23 22 21 20 19 18 18 16 14 14 15 15 16 17 16 15 15 14 14 14 12 11 11 11 10 10 10 9 8 6 5 4 4 4 5 5 6 7 8 10 12 14 15 13 10 8 4 3 5 3 4 4 7 13 12 10 12 14 17 20 21 21 21 21 22 22 22 22 22 23 23 24 23
21 21 22 23 23 25 26 27 26 24 23 23 22 21 20 18 17 18 17 16 16 17 18 18 18 18 18 17 16 15 14 13 12 10 10 10 9 9 9 7 7 6 4 4 5 6 7 7 8 9 8 10 11 12 14 14 13 9 3 2 1 2 2 5 14 15 8 9 12 14 17 21 23 22 22 22 22 22 22 22 22 23 24 24 24
21 21 22 23 23 25 26 27 26 24 23 22 21 21 20 19 19 19 18 18 20 20 21 20 19 19 18 17 16 14 13 12 11 10 10 10 9 9 7 6 6 6 5 6 7 8 8 9 11 11 11 11 10 11 12 13 15 13 8 3 1 2 1 5 11 8 7 10 10 14 19 22 23 21 22 23 22 22 23 23 23 23 24 25 26
21 21 22 23 22 23 24 24 24 23 22 21 21 22 22 21 22 22 22 21 20 19 22 22 20 20 18 17 15 13 12 11 11 11 10 10 9 8 8 7 7 8 7 8 9 9 11 12 12 12 13 11 9 11 12 12 14 16 15 12 8 7 4 6 5 3 9 9 5 13 19 22 23 19 22 25 23 22 23 23 23 23 25 26 28
19 20 21 21 21 21 21 22 22 22 21 21 22 22 22 23 23 23 24 23 19 18 21 22 21 20 18 17 15 12 11 11 11 10 10 9 9 9 8 8 9 10 9 9 11 12 14 15 14 14 15 13 11 14 16 13 13 15 16 16 15 15 13 11 5 3 6 4 6 13 16 20 21 17 22 25 23 22 23 23 23 24 27 28 29
19 20 20 20 19 19 19 20 18 16 16 18 19 21 22 23 23 24 24 23 22 21 22 22 21 20 18 16 14 13 11 10 10 10 9 9 9 8 8 9 11 11 10 11 13 14 16 17 17 17 17 17 16 17 20 18 17 17 15 14 15 15 17 17 14 8 3 4 8 11 16 23 19 15 20 25 23 21 22 23 23 26 28 29 30
19 19 20 19 18 17 18 18 13 11 13 15 16 18 22 24 24 26 24 23 24 24 23 22 21 19 18 16 14 13 12 11 10 10 10 9 9 9 9 11 12 13 13 14 15 16 17 18 19 19 19 20 20 19 22 22 21 19 17 16 16 16 17 19 21 17 8 4 6 7 19 27 20 16 20 24 23 19 19 22 24 27 28 30 33
19 19 19 19 18 16 18 18 13 13 17 17 17 17 19 22 24 27 26 24 25 25 23 22 21 19 17 16 14 13 12 12 11 11 11 11 10 11 11 13 14 14 15 16 17 18 19 20 20 20 20 21 22 22 23 23 23 22 20 20 20 19 16 16 20 19 12 7 6 7 15 20 18 20 22 24 22 19 18 21 25 27 28 31 35
19 19 18 18 18 17 17 18 16 17 18 18 18 17 17 21 25 27 27 26 27 26 24 23 21 19 18 16 15 14 13 13 12 12 12 12 12 13 14 15 16 16 17 18 19 20 20 20 20 19 20 21 22 23 24 23 23 23 23 23 23 21 17 13 14 16 11 7 6 6 12 17 16 18 22 24 21 18 17 22 27 26 26 32 36
Wind_Direction
166 161 158 156 152 151 152 152 151 148 147 146 145 143 138 130 127 127 126 123 118 115 114 115 116 117 117 118 118 117 116 115 114 112 109 105 101 98 94 91 88 87 89 94 99 100 99 100 97 96 96 95 96 98 103 106 104 104 101 101 106 104 102 102 99 99 96 92 91 95 95 92 80 69 67 69 77 81 81 78 82 86 80 76 77
163 159 156 154 151 149 151 151 150 148 147 146 145 143 138 132 130 129 127 123 119 117 117 118 118 119 120 120 120 119 118 118 116 114 110 105 101 98 96 94 93 91 90 93 101 104 104 105 100 97 97 100 102 98 100 104 104 103 102 101 101 98 97 97 97 98 98 98 95 94 93 87 77 68 66 74 79 78 82 82 82 84 83 79 75
154 155 154 151 149 147 150 150 149 148 145 145 145 143 138 133 132 131 128 124 121 120 121 120 120 120 120 121 120 119 120 120 117 113 109 106 103 100 98 95 95 91 86 85 92 99 103 106 103 101 101 107 107 100 103 107 105 101 103 104 101 95 91 86 84 85 87 97 98 96 94 83 76 70 67 72 74 75 80 79 77 78 81 85 83
150 151 149 148 147 147 149 148 149 147 145 145 145 142 138 135 134 131 128 126 123 121 121 120 120 120 120 120 119 120 121 120 118 113 111 107 105 101 97 93 91 87 79 75 78 87 95 100 102 103 102 110 110 108 114 114 108 106 108 106 101 95 90 83 75 71 70 81 88 94 97 89 84 78 72 65 57 72 81 70 67 68 67 71 76
146 147 145 147 146 146 147 147 147 145 144 144 144 141 139 136 134 131 129 128 124 122 121 120 119 119 120 120 120 121 121 121 119 116 113 109 106 100 96 93 90 87 80 73 70 73 83 95 102 104 105 113 116 117 122 120 114 112 110 104 102 98 91 82 72 62 58 73 77 80 92 95 95 88 82 73 58 73 85 76 74 72 65 65 65
145 143 145 147 145 145 146 146 145 144 144 143 143 140 139 136 134 131 129 128 126 124 122 120 120 120 122 123 124 123 122 123 122 119 116 112 110 105 100 95 92 90 83 74 65 63 73 89 100 105 110 117 121 125 128 125 121 117 110 102 103 108 107 96 80 65 52 67 73 75 86 92 94 94 92 90 79 79 85 79 83 82 76 85 83
144 143 147 148 144 144 143 143 144 144 142 142 142 140 140 135 132 130 130 129 127 127 123 122 121 122 124 124 125 125 125 126 125 121 119 117 115 110 102 95 92 92 90 81 71 67 68 78 93 102 112 121 127 130 132 130 127 123 117 106 101 108 112 105 86 84 66 65 71 72 82 89 91 95 97 97 94 91 85 63 69 80 78 94 100
141 144 149 146 144 144 140 141 145 143 139 141 140 140 140 134 131 130 131 131 129 127 124 123 121 122 124 124 125 127 128 128 127 124 123 119 113 108 103 100 97 101 106 100 95 93 81 82 92 101 115 126 133 135 135 133 129 123 117 106 94 84 78 30 156 145 150 101 79 73 79 89 93 98 95 92 88 82 75 51 58 67 61 80 80
140 145 146 144 143 141 139 143 144 140 140 140 139 141 140 135 133 132 132 132 130 126 124 123 121 123 125 126 127 129 131 131 131 129 127 121 117 114 114 111 105 113 117 112 108 101 93 99 108 114 126 135 140 140 138 136 130 121 108 93 75 53 19 280 202 167 157 121 96 79 78 84 95 102 95 75 71 53 45 50 54 44 48 83 85
140 143 143 141 140 140 140 143 142 141 142 140 141 142 141 138 135 135 136 136 132 127 125 124 123 124 125 128 129 132 134 134 135 134 130 125 125 124 126 119 109 111 106 100 95 87 86 104 121 130 137 143 145 144 143 139 130 118 101 84 64 49 15 215 118 138 141 116 106 86 74 78 96 107 103 84 75 57 43 48 50 44 53 74 91
140 142 141 140 140 142 141 142 143 143 143 142 144 145 144 142 140 140 140 139 133 129 127 125 125 125 126 129 131 133 135 136 139 139 136 134 132 131 131 121 113 112 106 102 94 86 83 103 126 137 143 147 148 148 146 141 130 115 98 82 68 64 109 159 109 123 133 114 105 89 68 70 78 83 97 93 82 76 55 62 68 82 80 72 84
141 142 139 140 142 143 141 141 144 146 146 146 147 148 149 145 145 145 143 140 133 131 129 128 128 128 129 130 132 134 136 139 141 141 141 139 136 136 131 122 123 123 121 111 96 87 84 103 131 142 147 151 151 152 149 141 129 113 98 81 73 78 97 160 122 124 131 120 105 88 63 58 55 48 62 55 51 89 97 94 83 102 108 93 100
142 141 140 143 143 142 142 143 147 149 150 149 150 150 151 149 148 147 144 140 135 135 132 131 132 132 132 131 132 133 135 138 140 141 143 143 145 150 144 139 135 134 130 113 97 92 88 102 134 148 151 155 156 156 151 141 129 113 98 83 77 78 70 282 151 136 140 134 106 84 56 45 42 36 30 29 52 87 107 114 90 103 116 124 148
143 144 145 144 141 141 143 145 148 150 151 152 151 150 151 150 151 148 144 141 138 137 134 135 135 134 133 131 130 127 127 129 133 136 143 152 160 167 167 166 151 143 137 119 101 95 93 102 131 151 155 158 159 158 152 143 132 119 101 87 79 69 57 21 282 232 189 178 116 61 26 23 32 27 24 33 51 77 97 100 74 91 115 142 163
145 146 144 141 140 143 144 147 150 151 153 152 149 148 151 152 153 149 144 141 139 138 137 137 135 134 132 128 125 122 122 122 127 135 149 167 177 177 174 172 161 152 146 128 109 100 98 101 125 152 159 162 163 162 157 149 141 127 104 86 76 58 48 41 331 263 238 231 252 306 334 357 13 7 17 33 33 52 65 44 18 19 70 93 68
145 145 142 141 143 145 148 151 153 153 154 152 147 148 154 157 155 149 145 143 141 141 139 137 135 133 130 128 126 123 119 113 115 121 149 179 188 182 174 167 160 157 154 139 118 107 103 98 117 149 164 169 170 170 166 159 153 134 103 78 66 52 42 37 20 301 257 250 260 287 315 337 348 338 360 14 6 24 25 7 19 19 27 4 342
144 145 143 143 144 147 152 153 153 152 152 150 147 151 158 158 155 151 149 146 144 144 140 137 135 134 133 131 127 119 109 101 98 93 104 134 168 178 172 163 159 160 159 146 127 113 106 98 106 137 165 176 180 179 177 172 164 147 104 65 53 49 38 30 20 354 275 257 265 280 302 318 319 312 328 345 347 1 4 351 354 317 295 300 318
145 147 146 146 147 150 153 152 152 150 150 149 149 154 158 157 156 154 151 148 147 144 140 139 140 139 136 129 121 110 101 91 82 82 79 77 105 156 163 161 159 161 161 151 135 119 107 98 96 112 147 174 188 190 189 185 179 166 112 60 40 40 34 24 15 6 321 260 267 275 292 306 308 298 297 324 337 338 337 330 325 303 300 324 354
146 149 149 151 151 152 153 152 151 148 149 150 151 155 157 158 157 156 153 150 148 144 143 144 145 142 134 126 119 108 97 85 80 82 79 75 78 118 151 159 161 163 164 156 140 124 107 97 90 90 105 139 181 197 201 199 199 192 131 57 22 20 24 15 8 5 350 281 270 276 287 297 299 295 291 305 321 321 321 326 331 322 322 354 4
146 150 151 153 152 153 155 153 150 147 150 150 152 156 159 160 158 158 154 151 150 148 150 149 146 140 134 130 120 108 95 85 86 84 78 73 73 97 133 152 161 165 165 160 145 128 109 96 86 78 75 80 110 188 208 212 218 217 192 28 358 354 3 360 354 358 355 322 286 283 285 289 295 297 290 294 310 316 321 331 337 328 320 335 349
146 152 154 155 155 156 156 153 150 149 152 153 156 158 160 161 159 158 154 153 153 153 155 150 147 143 140 132 116 106 95 87 89 85 75 69 71 84 112 139 155 164 165 161 150 135 115 98 85 75 67 61 58 71 196 217 225 227 253 319 337 340 344 344 340 341 345 335 302 289 285 285 290 295 289 287 302 312 319 328 333 330 321 321 327
149 156 159 160 158 158 156 153 151 152 155 157 159 159 161 163 160 158 156 156 156 157 158 152 152 150 146 133 116 106 97 90 88 86 76 70 70 76 95 122 143 157 163 162 156 148 131 112 92 78 66 55 49 58 106 188 204 221 288 309 322 331 328 325 324 324 329 330 315 297 288 284 285 289 288 285 294 304 313 320 326 328 319 314 310
157 160 162 163 160 159 159 157 155 155 158 160 160 162 165 166 163 161 160 159 160 163 159 155 156 152 147 134 122 115 108 97 89 84 74 71 71 73 82 97 121 142 157 164 166 165 155 138 93 59 46 45 47 55 80 162 194 289 317 315 309 308 310 309 308 311 315 320 320 309 293 284 280 283 285 284 289 295 303 309 317 322 312 309 304
161 160 162 164 165 163 162 160 158 158 162 164 163 167 170 169 166 163 163 162 162 164 159 156 155 152 146 136 130 125 119 109 100 90 74 72 72 72 77 82 95 111 130 144 153 163 154 100 29 25 24 26 23 13 348 317 317 325 330 330 318 303 297 298 301 304 308 313 318 313 300 287 279 282 284 282 285 288 295 300 305 311 305 305 301
160 159 164 168 171 167 164 163 162 162 166 168 167 172 173 172 170 167 168 165 162 162 159 157 156 155 147 139 139 133 121 116 115 105 84 77 76 74 74 79 87 91 97 96 93 92 81 61 27 15 10 9 12 2 352 343 341 340 339 340 336 320 302 294 295 298 304 311 314 309 300 292 283 282 283 282 283 284 289 293 296 301 301 300 297
161 163 168 172 173 168 164 165 166 167 169 169 171 176 176 176 174 171 171 167 164 162 162 164 162 160 154 152 154 146 128 121 122 111 88 78 79 75 74 81 94 105 100 89 92 103 103 80 49 35 16 5 7 358 353 348 345 340 335 337 339 337 325 307 293 294 302 307 308 303 295 294 290 286 284 282 282 281 285 289 289 293 298 298 295
165 167 170 172 174 171 168 170 171 171 171 171 174 180 180 180 178 175 173 169 168 165 166 168 166 165 165 171 175 175 162 159 199 189 302 292 91 82 82 77 87 118 115 93 93 97 96 76 47 27 11 356 351 344 341 338 336 336 334 334 335 338 341 336 311 294 302 304 302 300 293 293 292 289 289 287 283 280 282 285 288 288 291 294 292
168 170 173 176 178 177 175 175 176 174 172 172 178 182 180 179 179 178 175 174 173 168 166 164 164 169 174 186 198 215 236 244 244 245 263 248 209 126 96 66 65 96 95 77 72 65 52 36 360 344 343 339 339 333 331 331 334 337 334 331 330 334 343 351 346 315 312 310 305 305 303 298 292 293 297 295 286 278 278 280 285 286 288 290 290
172 172 175 180 181 181 180 179 179 176 174 175 180 182 176 177 180 179 177 179 177 168 165 166 165 175 188 204 216 226 240 246 245 240 232 220 209 187 122 66 21 338 349 36 43 41 23 359 342 343 344 338 337 333 332 332 334 339 337 331 326 331 338 346 351 338 325 320 315 313 311 305 300 301 301 298 289 281 276 274 278 279 280 281 279
176 173 176 181 182 182 182 180 179 177 175 177 181 181 177 178 180 179 178 180 179 172 172 175 174 185 203 216 217 220 231 231 229 221 208 205 203 206 220 227 239 260 258 305 6 20 7 353 347 354 356 350 346 341 338 335 336 342 343 338 332 335 339 342 344 339 329 320 318 317 313 309 307 307 302 298 294 287 278 276 281 280 281 282 272
176 175 179 181 181 183 184 182 179 176 176 179 181 182 180 179 181 181 181 182 182 180 180 182 185 200 215 215 211 211 211 206 209 210 199 197 204 206 215 217 217 224 233 273 360 12 358 345 347 357 355 350 346 342 339 336 338 346 349 347 342 340 339 340 341 338 332 324 320 316 313 312 310 310 307 301 298 291 284 285 288 284 284 287 280
179 180 183 182 182 184 184 182 177 175 177 180 180 180 178 179 183 183 184 188 189 188 186 189 198 208 211 207 207 205 205 206 208 208 204 210 217 215 216 211 202 194 184 360 356 355 349 337 341 355 346 341 340 337 338 336 336 342 349 350 346 342 337 334 335 333 331 329 324 318 315 315 315 314 312 309 304 297 292 291 290 287 284 285 287
184 184 183 183 185 185 185 180 174 175 178 177 176 176 177 179 183 184 187 192 193 194 194 196 202 203 202 206 210 209 210 216 215 214 220 229 231 228 221 208 200 198 191 333 328 323 308 293 307 347 346 344 346 348 346 343 340 342 344 343 342 339 335 332 330 327 328 330 331 328 325 325 327 326 323 320 315 308 301 298 296 296 291 283 286
187 185 184 186 186 187 186 180 176 178 177 175 175 177 179 181 184 186 190 194 194 198 199 197 199 200 205 212 214 215 218 222 224 226 230 235 238 228 210 203 205 203 208 318 308 305 284 285 323 347 349 345 344 345 340 340 343 344 342 339 336 334 332 333 331 330 329 331 333 335 337 337 337 335 333 331 327 322 316 312 308 307 302 294 292
188 186 187 186 186 186 185 182 181 181 178 177 178 182 184 183 186 189 194 200 199 200 199 197 199 203 212 216 216 219 220 222 227 229 231 235 235 216 200 197 186 188 339 326 308 315 312 319 335 343 342 335 333 336 333 335 338 341 341 338 336 334 333 333 332 334 334 337 342 346 347 345 343 339 337 337 336 335 331 326 321 318 315 310 307
191 188 187 185 186 187 186 185 186 186 184 182 184 188 189 188 188 190 195 199 198 197 197 198 200 206 212 214 216 219 218 223 226 225 227 231 224 199 197 198 129 25 346 330 318 325 333 336 341 341 338 331 330 334 336 337 337 337 337 335 338 339 337 337 336 339 343 347 352 354 352 349 347 347 345 344 341 340 338 335 331 327 325 321 318
190 188 186 185 187 188 190 191 191 192 191 189 190 191 190 188 187 185 185 187 189 191 192 195 199 204 210 210 211 215 220 223 221 220 215 208 189 169 169 154 120 48 11 340 337 343 344 347 345 339 338 336 337 342 346 345 340 335 332 334 340 343 344 351 355 0 4 2 357 355 358 358 358 359 356 354 351 349 346 343 341 337 334 332 330
183 184 184 185 188 191 194 195 194 194 194 191 187 184 181 179 178 175 174 176 181 185 188 192 197 201 203 202 204 209 216 213 204 193 176 164 149 141 138 133 130 122 114 4 360 350 348 351 347 341 345 355 2 2 357 350 342 333 331 335 340 342 358 18 29 32 27 18 15 18 22 20 17 14 10 8 7 6 2 359 356 353 349 347 345
176 179 181 183 186 191 192 191 188 186 184 181 176 173 170 169 168 166 168 171 174 178 183 187 188 190 187 184 190 190 188 177 163 160 156 149 140 133 131 132 134 139 142 51 44 19 14 10 2 9 16 23 24 15 5 353 342 333 331 341 345 347 31 47 47 49 43 37 38 40 38 32 29 27 24 22 20 18 14 10 7 3 358 355 352
171 174 176 179 182 185 185 182 179 177 175 172 169 166 164 164 164 163 164 165 168 169 171 174 171 169 164 161 164 160 153 147 142 148 150 146 138 131 127 124 125 134 131 91 65 43 37 33 35 44 30 31 25 15 9 353 340 332 331 348 4 3 63 56 51 52 45 41 42 40 37 31 29 28 26 25 22 21 17 13 10 6 0 357 356
169 173 175 178 182 183 181 179 176 175 175 173 169 168 167 165 162 163 163 160 163 163 157 155 151 143 143 146 149 146 143 140 138 139 139 137 131 125 122 117 116 121 109 88 66 53 48 44 51 46 31 31 28 19 10 358 351 345 337 339 352 353 146 40 45 45 35 31 31 30 28 24 21 19 17 16 17 19 19 16 14 12 9 5 2
170 176 177 180 184 184 183 181 177 177 178 178 176 174 173 171 167 164 161 157 157 155 145 139 137 134 134 137 138 137 137 134 132 131 127 125 124 121 118 115 116 112 99 82 65 59 58 49 46 45 42 41 39 28 15 12 9 353 332 329 341 339 271 304 23 27 24 23 19 21 22 19 16 12 8 7 11 17 20 19 15 14 15 14 13
174 177 178 180 182 183 184 183 181 182 182 183 183 180 177 176 175 169 163 155 146 143 138 136 138 135 131 131 130 130 132 128 127 127 122 120 121 121 118 116 113 101 92 85 73 64 52 46 41 45 51 51 51 40 29 31 20 353 319 326 353 345 314 328 346 354 13 21 11 17 19 16 12 6 3 4 9 16 22 21 12 8 11 13 16
176 176 176 178 181 184 185 185 185 185 185 186 186 183 177 175 174 168 163 151 137 136 135 134 137 134 128 127 127 127 128 125 125 125 124 123 120 119 117 113 104 93 91 87 75 63 51 46 42 42 48 53 57 51 42 43 37 25 6 293 309 358 345 353 338 331 1 21 10 14 13 11 8 1 3 7 11 16 20 21 14 4 3 5 7
179 178 178 180 183 186 188 188 187 186 186 186 186 182 176 168 161 153 148 139 132 132 130 127 130 130 127 125 124 126 128 126 125 124 124 123 118 115 110 104 99 93 89 81 74 67 57 51 46 44 50 57 64 60 54 50 50 54 55 42 327 360 316 332 336 319 335 351 4 11 3 5 7 2 3 7 11 15 15 16 14 5 358 358 360
181 181 181 183 185 190 191 190 188 186 185 186 186 183 175 167 158 149 142 134 128 128 129 128 128 128 126 124 123 124 128 126 124 123 121 119 115 111 107 103 99 93 89 83 78 71 63 59 53 52 57 60 63 62 59 58 60 62 65 72 68 50 19 341 344 298 321 328 350 356 350 358 4 2 2 4 7 13 12 10 10 6 359 355 356
180 180 181 183 187 192 193 191 191 188 185 184 183 178 172 168 161 155 148 140 131 126 131 133 131 129 125 124 123 122 124 123 120 117 114 112 109 107 102 98 95 93 92 86 79 74 70 68 64 63 64 61 61 63 59 58 62 61 65 73 67 57 49 37 34 320 320 318 330 339 343 354 1 1 359 360 5 9 8 8 6 3 359 356 356
174 175 179 182 185 189 192 194 193 188 185 183 179 175 174 170 162 156 149 143 138 133 136 136 133 132 127 124 124 121 119 116 114 111 107 106 103 99 94 92 95 95 93 86 82 80 78 76 71 69 69 66 67 70 66 62 60 57 58 62 58 53 50 46 40 24 350 304 320 333 340 344 353 6 358 355 2 6 5 6 3 359 359 359 358
169 170 176 179 181 184 187 187 178 174 184 186 180 178 178 173 165 156 147 142 142 140 139 138 135 135 130 126 124 120 116 111 108 105 102 100 97 97 97 97 99 96 92 87 86 85 82 78 74 73 75 75 76 78 74 70 65 60 56 53 47 43 41 38 33 30 30 348 332 333 338 340 345 355 356 355 360 6 6 2 358 359 1 359 359
168 171 174 177 180 180 182 182 173 177 190 191 184 180 177 173 165 157 148 142 143 143 141 138 137 138 132 128 123 118 114 108 104 100 97 97 98 102 103 102 101 97 92 89 89 87 82 80 80 81 83 83 82 82 79 76 72 66 61 56 50 42 36 31 26 26 28 15 350 328 335 340 332 331 347 357 359 5 7 360 358 1 1 357 358
169 173 171 174 179 178 179 185 185 184 187 187 183 182 182 176 166 159 153 150 149 147 144 139 138 138 133 128 122 117 112 106 102 98 96 99 102 104 104 102 99 95 92 90 89 87 86 86 86 87 87 87 87 85 81 78 74 70 67 64 62 58 54 46 34 30 32 16 347 324 327 330 316 312 336 352 358 7 6 358 1 2 356 355 358